Weather in Ramallah

Palestinian Territory     31°54′01″N   35°12′03″E
temp.,
°C
wind,
m/s
gust,
m/s
humid.,
%
clouds,
%
prec.,
mm/h
press.,
hPa
HPBL,
m
10 august, wed
wed1000:00+21wnw34750 0.0 1009238
03:00+20w23802 0.0 1009173
06:00+20w239033 0.0 1009211
09:00+23wnw447023 0.0 1009726
12:00+26w44510 0.0 1009966
15:00+29wnw77400 0.0 10071071
18:00+25wnw99570 0.0 1007745
21:00+22wnw68805 0.0 1008508
11 august, thu
thu1100:00+21wnw468734 0.0 1008397
03:00+21wnw349026 0.0 1008305
06:00+21wnw238921 0.0 1008174
09:00+23wnw23690 0.0 1009588
12:00+28wnw54410 0.0 10081112
15:00+30wnw75340 0.0 10071182
18:00+27nw88450 0.0 1007640
21:00+23nw45720 0.0 1009305
12 august, fri
fri1200:00+22wnw23780 0.0 1009146
03:00+21wnw12690 0.0 100819
06:00+21wnw22620 0.0 100912
09:00+25wnw22390 0.0 1009431
12:00+30nw43270 0.0 10091003
15:00+31wnw64280 0.0 10071059
18:00+27wnw88380 0.0 1008514
21:00+23wnw46640 0.0 1009287
13 august, sat
sat1300:00+21w23680 0.0 1009111
03:00+20w33720 0.0 100973
06:00+19w22790 0.0 100940
09:00+23w34560 0.0 1009472
12:00+28w54350 0.0 1008914
15:00+30wnw86310 0.0 1007879
18:00+26wnw88520 0.0 1007553
21:00+22wnw57780 0.0 1008418
14 august, sun
sun1400:00+21w368841 0.0 1008429
03:00+21w358631 0.0 1008366
06:00+20w338829 0.0 1008197
09:00+24w34670 0.0 1009593
12:00+29wnw44410 0.0 10081107
15:00+30wnw75370 0.0 10071062
18:00+27wnw77510 0.0 1007570
21:00+23wnw45800 0.0 1009335